Главная страница
METAR-TAF:

METAR-TAF

Аэропорты :

Шёвде, Швеция

широта: 58-27N, долгота: 013-58E, высота над уровнем моря: 98 м

Текущие метеонаблюдения

Эта сводка был подготовлена 35 минут назад, в 21:20 UTC
Ветер 7 Узел от южный
Температура 8°C
Влажность 93%
Давление 1031 hPa
Видимость 10 км и более

METAR: ESGR 152120Z AUTO 18007KT 9999 SCT045/// BKN070/// 08/07 Q1031

Время: 22:55 (21:55 UTC)


TAF: отсутствует

Метеонаблюдения и прогнозы для более 4000 аэропортов (сводки METAR и TAF).

Имеющиеся станции представлены на карте желтыми и красными точками.

Чтобы увидеть название станции, наведите на нее мышь.

Затем щелкните, чтобы увидеть метеонаблюдения и метеопрогнозы.

Управление картой: чтобы увеличить масштаб, щелкните зеленые кнопки с черным крестиком; чтобы уменьшить масштаб, щелкните зеленую кнопку с тире; для просмотра соседних карт щелкайте зеленые стрелки.


METAR-TAF: